User: anonymous   Login
Location: Unspecified
(0.0000°N, 0.0000°E)
Time: 13:12:46
(UTC+02:00)
Language:

Ariane H10 - Orbit

View from above orbital plane
View from above orbital plane
View from above satellite
View from above satellite

Ground track
Ground track

The orbit data is extracted from the following two-line orbital elements,

1 19122U 88040B   14297.76814608  .00001284  00000-0  69288-2 0   539
2 19122 006.9043 205.0307 7151713 087.7480 294.3151 02.32354087174398
Epoch (UTC): 24 October 2014 18:26:07
Eccentricity: 0.7151713
inclination: 6.9043°
perigee height: 480 km
apogee height: 34921 km
right ascension of ascending node: 205.0307°
argument of perigee: 87.7480°
revolutions per day: 2.32354087
mean anomaly at epoch: 294.3151°
orbit number at epoch: 17439

The dashed part of the orbit path shows where the satellite is in the earth's shadow,  

DLR